Wind_Speed
77 78 78 79 80 81 82 83 84 85 85 85 86 87 89 91 91 91 91 92 93 93 93 94 94 95 96 97 99 100 102 104 105 106 108 109 111 112 114 115 116 118 119 120 122 123 124 125 127 128 130 131 132 133 135 136 138 139 141 142 143 144 144 144 144 141 140 140 139 140 142 142 141 142 143 142 141 140 138 136 134 132 131 131 130
79 80 81 82 83 84 84 85 86 86 86 87 89 91 92 93 93 93 94 95 95 95 95 96 96 97 98 100 102 104 106 107 108 109 110 112 113 115 116 117 119 120 121 123 124 125 127 128 129 130 132 133 134 135 137 138 140 142 143 144 145 146 147 147 147 146 143 142 141 141 143 143 144 145 146 145 143 140 137 134 133 131 130 129 128
82 83 84 85 85 86 87 88 88 89 89 91 92 94 94 94 94 95 96 97 97 97 98 98 99 100 102 104 106 107 108 109 110 111 113 114 115 117 118 120 121 123 124 125 127 128 129 130 131 132 134 135 136 138 139 140 142 143 145 146 147 148 149 150 150 149 147 145 143 143 144 145 145 146 147 145 143 140 137 135 133 131 129 127 127
86 86 87 87 88 89 89 90 91 92 93 94 95 95 95 96 97 97 98 98 99 99 100 101 102 104 106 108 109 110 111 112 113 114 115 117 118 120 121 122 124 125 126 128 129 130 131 132 133 134 136 137 138 140 141 142 144 145 146 148 149 149 150 151 151 151 150 148 147 147 147 147 147 147 147 144 141 139 137 134 132 130 128 126 125
89 89 90 90 90 91 91 92 94 95 96 97 97 97 98 99 99 99 99 100 101 102 103 105 106 108 109 110 111 112 113 114 115 117 118 119 121 122 124 125 126 127 129 130 131 132 133 135 136 137 138 139 140 142 143 144 145 147 148 149 150 150 151 152 152 152 152 151 150 150 149 149 149 148 146 143 140 138 136 133 130 128 126 123 122
92 92 92 92 93 93 94 96 97 98 98 99 100 100 101 101 101 102 103 103 104 106 107 108 110 111 111 112 113 115 116 117 118 119 121 122 123 124 126 127 128 129 131 132 133 134 136 137 138 139 140 141 142 143 144 145 147 148 149 150 150 151 151 151 152 152 153 153 152 152 151 151 149 146 144 142 140 138 135 131 128 126 124 121 121
94 94 94 95 96 97 98 99 100 100 101 102 103 103 104 104 105 105 106 107 108 109 110 111 112 113 114 115 116 117 118 119 121 122 123 124 125 126 128 129 130 132 133 134 135 136 138 139 140 141 141 142 143 144 145 147 148 149 150 150 150 150 151 151 152 153 153 153 153 153 152 151 148 145 142 141 139 136 134 131 127 124 123 122 122
96 96 97 98 99 100 101 102 102 104 105 105 105 106 106 107 107 108 109 110 111 112 113 114 115 116 117 118 119 120 121 122 123 124 125 125 127 128 130 131 133 134 135 136 137 139 140 141 142 142 143 144 145 146 147 148 149 150 150 150 150 150 151 152 152 153 153 154 154 154 152 149 147 144 142 140 137 133 131 130 127 124 123 123 123
98 99 100 101 102 102 103 105 106 107 107 107 108 108 109 109 110 110 111 112 113 114 116 117 118 119 120 121 122 123 123 124 125 125 126 127 129 130 132 133 135 136 138 138 140 141 142 143 143 144 145 146 147 148 149 150 150 150 150 151 151 151 152 153 153 154 154 154 154 153 150 147 145 144 142 139 135 132 130 128 126 125 124 122 121
101 101 102 103 104 105 107 108 108 108 108 109 110 110 111 111 112 113 114 115 116 117 119 120 121 122 123 123 124 125 125 126 126 127 128 129 131 132 134 135 137 138 139 140 142 143 143 144 145 145 146 148 149 150 150 150 151 151 151 152 152 153 154 154 154 155 155 155 153 151 148 146 144 142 140 137 134 132 130 128 127 125 123 121 119
103 104 105 106 107 108 109 109 109 110 110 111 112 112 113 113 114 115 116 117 119 120 121 122 123 124 125 125 126 127 127 127 128 129 130 131 133 134 136 137 138 139 140 142 143 143 144 145 146 147 148 149 150 150 150 150 151 152 153 153 154 155 155 155 156 156 155 153 150 148 147 145 142 140 139 137 134 132 130 129 129 127 124 122 120
105 105 106 107 108 109 110 110 111 111 112 113 113 114 115 116 116 117 119 120 122 123 124 125 125 126 127 127 128 128 128 129 130 130 132 133 135 136 138 138 139 140 141 142 143 144 145 146 147 148 149 150 150 150 150 150 151 152 153 154 154 155 156 157 157 155 153 150 148 146 145 143 141 139 138 137 134 132 131 130 129 127 125 122 120
105 106 107 108 109 110 111 112 113 113 114 115 116 117 117 118 119 120 122 123 124 125 126 126 127 128 128 129 129 130 130 131 131 133 134 136 137 138 139 139 140 141 142 143 144 145 146 147 148 149 149 149 149 149 150 151 151 152 152 153 154 156 157 157 155 153 151 148 146 145 144 142 141 139 138 137 136 135 133 131 129 127 124 121 119
106 107 108 109 111 112 113 114 115 115 117 118 119 119 120 121 122 123 124 125 126 127 128 128 129 129 130 130 131 131 132 133 134 135 136 138 139 139 140 140 141 142 143 144 145 146 147 147 148 148 148 148 149 149 150 150 151 151 151 153 155 156 155 153 151 149 148 147 146 144 143 142 141 139 138 138 138 137 134 132 130 127 124 121 120
108 109 110 111 113 114 115 116 117 118 119 120 121 122 123 124 125 126 127 128 128 129 129 130 130 131 131 132 133 134 134 135 136 137 138 139 139 140 140 141 142 143 144 145 146 146 147 147 147 148 148 149 149 150 150 150 150 150 152 153 154 153 151 149 147 146 146 145 145 144 143 142 141 139 139 140 139 137 134 132 129 126 124 121 119
110 111 113 114 115 117 118 119 120 121 122 122 123 124 125 126 127 128 129 130 130 131 131 131 132 132 133 134 135 136 136 137 137 138 139 139 140 141 141 142 143 144 145 145 146 146 147 147 148 148 149 149 150 151 151 151 151 152 152 152 150 148 147 145 144 144 144 144 144 144 143 142 141 140 141 141 139 137 134 130 127 125 123 121 118
113 115 116 117 118 119 120 121 121 122 123 124 125 126 127 128 129 130 131 132 132 132 132 133 133 134 135 136 136 137 137 138 138 139 140 141 141 142 142 142 143 144 145 145 146 146 147 148 149 149 149 150 151 151 152 152 152 152 150 148 145 144 143 142 142 143 143 144 144 143 142 141 141 141 141 140 138 136 134 130 126 123 122 121 117
117 118 119 120 121 121 122 122 123 124 125 126 127 128 129 130 131 132 133 133 133 133 134 134 135 136 136 137 137 137 137 138 139 140 141 142 142 142 142 142 143 143 144 145 146 147 148 149 149 150 150 151 152 152 152 152 151 149 147 144 142 141 141 140 140 141 141 141 141 141 141 141 140 140 138 137 136 136 134 131 127 124 122 120 117
120 121 121 122 122 123 124 124 125 126 127 128 129 130 131 132 133 133 134 134 134 134 135 135 136 136 137 137 137 137 138 139 141 142 143 143 142 142 141 141 142 143 144 145 147 148 149 150 150 150 151 151 152 152 152 151 148 146 144 143 141 141 140 140 140 139 139 138 137 137 138 138 137 137 135 135 135 135 133 130 127 124 122 120 117
121 122 123 123 124 125 126 127 127 128 129 130 131 132 133 134 134 134 134 134 135 135 136 136 136 136 136 137 137 138 140 141 142 143 143 142 141 141 141 141 142 143 145 146 147 149 149 150 150 150 151 152 152 151 149 148 146 145 144 143 142 141 141 140 140 139 137 136 135 135 135 134 134 134 134 134 135 134 132 128 125 123 121 118 116
123 124 124 125 126 127 128 129 130 130 131 132 133 133 134 134 134 134 134 134 135 135 135 135 136 136 137 138 139 140 141 142 142 142 141 141 141 141 141 142 143 144 146 147 148 148 148 148 149 150 150 150 149 148 146 145 144 144 144 143 143 142 141 140 139 138 137 136 135 134 133 132 132 132 133 134 135 133 130 127 123 121 119 116 113
125 126 126 127 128 129 130 131 131 132 133 133 133 133 133 133 133 133 134 134 134 134 135 136 136 137 138 138 139 140 140 141 141 141 141 141 142 142 143 143 144 145 146 147 147 147 147 147 147 148 148 146 145 144 144 144 144 143 143 143 143 143 142 140 139 138 137 136 135 134 133 131 131 132 132 133 133 132 129 126 123 120 117 113 109
127 128 128 129 130 130 131 132 132 133 133 133 132 132 132 132 132 133 133 133 134 134 135 136 137 137 137 138 138 139 140 140 140 141 142 143 143 144 144 144 144 145 146 146 146 146 146 146 145 145 144 143 143 142 142 143 143 143 143 143 143 142 141 140 139 138 137 136 135 134 133 132 132 132 132 131 130 129 128 125 122 119 115 111 107
128 129 129 130 130 131 131 131 131 131 131 131 131 131 131 131 131 132 132 133 134 134 135 136 136 136 136 137 138 139 140 140 141 142 143 144 144 144 144 143 144 144 145 145 145 144 144 143 143 142 141 141 141 141 141 142 143 143 143 143 142 141 140 139 139 138 136 136 135 135 134 133 133 132 131 129 127 126 126 124 121 117 114 110 106
128 128 128 129 129 129 129 129 129 129 129 129 129 129 130 130 131 131 132 133 133 134 134 135 135 136 136 138 139 140 141 142 142 143 143 144 144 144 143 143 143 144 144 144 143 142 141 141 141 140 140 140 140 141 141 142 143 143 143 142 141 141 140 139 138 137 136 136 136 135 135 134 133 132 129 127 126 125 124 123 120 116 113 109 106
125 126 126 126 126 126 126 126 126 126 127 127 128 128 129 130 130 131 132 132 133 133 134 135 136 137 138 139 141 141 142 142 142 142 143 143 143 143 142 142 142 142 142 141 140 140 140 140 139 139 139 139 140 141 141 142 142 142 142 141 141 141 140 139 138 137 136 136 136 136 135 134 133 130 128 126 126 125 124 121 118 114 111 108 105
122 122 122 123 123 123 124 124 125 125 126 127 127 128 129 130 130 131 132 133 133 134 135 136 138 139 140 141 141 141 141 141 141 142 142 142 142 142 141 140 140 140 139 138 138 138 138 138 138 139 139 140 140 141 141 141 141 141 141 141 141 141 140 139 138 138 137 137 137 137 136 134 131 129 127 127 126 125 122 119 114 110 108 105 103
121 121 121 122 122 123 123 124 125 125 126 127 128 129 130 131 131 132 133 134 135 136 137 138 139 140 140 140 140 140 140 140 140 141 141 141 140 140 139 138 138 138 137 136 136 136 137 137 137 138 139 139 139 140 140 140 141 141 142 142 141 141 140 139 139 139 139 138 138 137 135 132 130 128 128 127 126 124 120 116 112 108 105 103 100
120 121 121 122 122 123 124 125 126 127 128 129 130 130 131 132 133 134 135 136 137 137 138 138 139 139 139 139 140 139 139 139 139 139 139 139 138 137 136 136 136 135 134 134 134 135 136 136 137 137 137 138 138 138 139 140 141 142 142 142 141 141 141 141 141 140 139 138 137 136 133 130 128 127 127 127 125 122 118 113 109 106 104 101 98
121 121 122 123 124 125 126 127 128 129 130 131 132 133 134 135 136 136 137 138 138 138 138 138 138 138 139 139 139 139 138 138 138 137 137 136 135 134 133 133 133 133 133 133 133 134 135 135 135 136 136 137 137 138 139 140 141 141 141 141 141 142 141 141 141 140 139 138 137 134 131 129 127 126 126 126 124 120 115 111 108 105 102 99 95
123 124 125 125 126 127 128 129 130 131 132 133 134 135 136 137 138 138 138 138 138 138 137 137 137 138 138 138 138 137 136 136 135 134 133 133 132 131 131 131 132 132 132 132 132 133 133 133 134 135 136 137 138 139 139 140 140 140 141 141 142 142 142 141 140 139 138 138 136 133 130 128 127 125 124 123 120 116 112 109 107 104 101 97 93
126 127 128 128 129 130 131 132 133 134 134 135 136 136 137 137 137 138 138 137 137 136 136 136 136 136 136 135 135 134 133 132 131 130 130 129 129 129 130 131 131 131 131 131 132 132 132 133 134 136 137 138 139 139 139 140 140 140 141 142 142 141 141 139 138 138 137 136 134 132 130 128 127 125 122 119 115 112 110 108 105 102 99 95 90
128 129 130 131 132 132 133 134 134 135 135 135 136 136 136 135 135 136 136 135 135 134 134 134 134 133 133 132 131 130 129 128 127 127 127 128 128 129 130 130 130 130 130 131 131 132 133 134 136 137 138 139 139 139 140 141 141 141 141 141 140 140 139 138 137 137 136 135 133 131 130 128 127 124 120 116 112 109 108 107 104 101 97 93 88
130 131 131 132 132 133 133 134 134 134 134 134 134 134 134 134 134 134 133 133 132 131 131 130 130 129 127 127 126 126 125 125 125 125 126 127 128 129 129 129 129 130 130 131 132 133 134 136 137 138 139 139 140 141 141 142 142 142 141 140 139 138 138 137 136 135 135 134 132 131 130 128 125 122 117 113 110 109 107 106 103 100 95 90 86
129 129 130 131 131 131 131 132 132 132 132 132 132 131 131 131 130 130 129 128 127 126 125 125 125 124 123 123 124 124 124 124 124 125 126 127 128 128 129 129 129 130 132 133 134 135 136 137 138 139 140 141 141 142 142 142 142 140 139 138 138 138 137 136 135 134 134 133 132 131 129 126 123 118 114 111 109 108 107 105 102 99 94 89 84
126 126 127 127 127 128 128 128 127 127 127 127 126 126 125 124 124 123 123 122 122 121 121 122 122 122 122 122 123 123 123 123 123 124 125 127 128 129 129 130 131 133 134 135 135 136 136 138 139 141 142 142 142 142 142 141 140 139 138 138 137 136 135 134 133 133 133 132 131 129 127 123 119 115 111 109 108 107 106 103 101 97 92 87 83
121 121 121 122 122 122 122 121 121 121 121 120 120 119 119 119 119 119 119 119 119 119 119 119 120 120 121 121 122 122 122 123 124 125 126 128 129 131 132 133 134 135 136 136 136 137 138 139 141 142 143 143 142 141 141 140 139 138 138 137 136 135 134 133 132 132 132 131 130 127 124 120 115 112 109 108 107 106 104 101 98 94 90 86 82
113 113 113 114 114 114 114 114 114 114 114 114 114 114 114 115 115 115 116 116 117 117 117 118 119 120 121 122 123 123 123 124 125 126 128 130 131 133 134 135 135 136 137 137 138 139 140 140 141 142 142 142 141 140 140 139 139 138 137 136 135 134 133 132 131 131 131 129 127 124 120 116 112 109 108 107 106 105 102 99 95 91 87 84 81
105 105 105 105 106 106 106 107 107 108 109 110 111 111 112 112 113 114 115 116 116 117 118 119 120 121 122 123 124 124 125 126 127 129 130 131 133 134 135 136 137 138 138 139 139 140 140 140 140 140 140 140 139 139 139 139 139 138 137 136 135 134 133 132 131 130 129 126 123 120 116 112 109 108 107 107 105 103 100 96 92 88 85 82 79
100 101 101 101 102 102 103 104 105 106 108 109 110 111 112 113 114 115 116 117 118 119 120 121 122 123 124 125 126 126 127 128 129 130 131 132 134 135 136 138 139 139 140 140 139 139 139 139 139 139 139 139 139 139 139 139 138 137 136 135 134 133 132 130 129 128 125 123 119 116 113 110 108 107 107 106 104 100 97 93 90 86 83 80 77
99 99 100 101 102 103 104 105 106 108 109 110 111 113 114 115 116 117 118 119 120 121 122 123 124 125 126 126 127 127 128 129 130 131 133 134 135 136 138 139 140 140 140 140 139 138 138 138 138 139 139 139 139 138 138 138 137 136 135 134 133 131 130 128 126 124 122 119 115 112 110 108 107 107 106 104 101 98 94 90 87 85 82 79 76
99 100 102 103 104 105 106 108 109 110 112 113 114 115 116 117 118 119 120 121 122 122 123 124 125 126 127 127 128 129 130 131 132 134 135 136 137 138 139 139 140 140 140 139 139 138 138 138 139 139 139 138 138 137 137 136 136 135 134 132 131 129 127 125 123 121 118 115 112 109 108 107 107 106 105 102 99 95 91 88 86 83 80 78 74
102 103 104 105 106 107 109 110 111 112 114 115 116 117 117 118 119 120 121 121 122 123 123 124 126 127 128 129 130 131 132 133 135 135 136 137 138 139 139 139 139 139 139 139 139 139 139 139 139 139 139 138 137 136 135 135 134 134 132 131 129 127 124 122 120 118 115 112 110 107 106 106 105 104 102 99 96 92 89 87 84 82 80 77 74
104 105 106 107 108 109 110 111 112 113 114 115 116 116 117 118 119 120 120 121 122 123 125 126 128 129 130 132 132 133 134 135 136 136 137 137 138 138 139 139 139 139 140 140 140 140 140 139 138 138 137 136 135 135 134 134 134 132 131 129 126 124 121 119 117 115 112 110 108 107 106 105 104 102 99 96 93 90 87 85 82 81 79 76 73
106 107 107 108 109 109 110 111 111 112 113 114 115 116 117 118 119 120 121 123 124 126 127 129 130 131 132 133 133 134 135 135 135 136 136 137 138 138 139 139 140 140 140 140 140 139 139 138 137 136 136 135 134 134 133 133 132 130 128 126 124 121 118 116 114 112 110 109 108 107 106 105 102 99 96 93 91 88 86 83 81 79 77 74 71
109 109 110 110 110 111 111 112 112 113 114 115 116 117 118 120 121 122 124 125 127 128 129 130 131 132 132 133 133 134 134 135 135 135 136 137 139 140 140 140 140 140 139 139 138 138 137 137 136 135 135 134 134 133 132 131 129 127 125 123 120 118 115 113 112 110 109 108 107 106 105 102 99 96 94 91 89 87 85 82 79 77 74 72 69
112 112 112 112 113 113 114 114 115 116 117 118 119 120 122 123 124 125 126 127 129 130 130 131 132 132 132 133 133 134 134 135 135 136 138 139 140 140 141 140 140 139 138 137 136 136 136 135 135 134 134 133 132 131 129 128 126 124 122 119 117 114 113 111 110 109 108 107 106 104 102 100 97 94 91 89 87 85 83 81 78 75 72 70 67
114 115 115 115 115 116 117 117 118 119 120 121 122 123 124 125 126 127 128 129 130 130 131 131 132 132 133 133 134 134 135 136 137 138 139 139 140 140 139 138 137 136 136 135 135 135 135 134 134 133 132 131 130 128 127 125 123 121 119 116 114 112 111 110 109 108 107 106 104 102 99 97 94 92 89 87 86 84 82 79 76 73 70 67 65
117 118 118 118 119 119 120 121 121 122 123 124 125 126 126 127 127 128 129 129 130 131 131 132 132 133 134 134 135 136 137 137 138 138 138 138 138 137 136 135 134 134 134 134 134 133 133 132 132 131 130 129 127 126 124 122 120 118 115 113 112 111 110 109 108 107 105 103 101 99 96 94 91 89 87 86 84 82 80 77 74 71 68 65 63
120 121 121 121 122 123 123 124 125 125 126 127 127 127 127 128 128 129 129 130 131 132 132 133 134 134 135 136 136 137 137 137 137 137 136 136 135 135 134 133 133 133 133 132 132 132 131 130 129 128 127 125 124 122 120 118 116 114 113 112 111 111 110 108 107 105 103 101 98 96 94 91 89 87 85 83 81 79 77 75 72 69 66 64 61
123 124 124 125 126 126 127 128 128 129 129 128 128 128 129 129 129 130 131 132 133 133 134 134 135 135 135 136 136 135 135 135 134 134 134 133 133 132 132 132 131 131 131 131 130 129 128 127 126 125 123 122 120 118 116 115 113 112 111 111 111 110 109 107 105 103 100 98 96 94 92 89 87 85 83 81 78 76 74 72 70 67 65 62 60
Wind_Direction
275 276 278 279 281 283 285 287 289 290 291 292 293 293 294 294 295 295 295 296 297 298 299 300 301 302 302 303 304 304 305 305 305 305 305 305 304 304 305 305 306 306 307 307 308 308 308 309 309 309 310 310 311 312 312 313 313 313 313 314 314 314 314 315 315 316 315 315 314 314 315 314 314 314 314 314 314 314 314 314 314 314 314 313 312
275 276 278 280 282 284 286 287 289 290 290 291 292 293 294 294 294 294 295 296 297 298 299 300 301 302 302 303 304 304 304 304 304 304 304 304 304 304 305 305 306 306 307 307 308 308 308 309 309 309 310 310 311 311 312 312 312 313 313 313 313 314 314 314 315 315 315 315 314 314 314 314 314 314 314 315 315 314 314 314 313 313 313 313 313
275 276 278 280 282 284 286 287 288 288 289 290 291 292 293 294 294 294 295 295 296 297 298 299 300 301 302 303 303 303 303 303 303 303 303 303 304 304 305 305 306 306 307 307 307 308 308 308 309 309 309 310 311 311 312 312 312 312 312 313 313 313 313 313 314 314 314 314 314 314 314 314 314 314 315 315 315 314 314 314 314 313 314 314 314
275 276 278 280 282 283 285 286 286 287 288 289 291 292 292 293 294 294 295 295 296 297 298 299 300 301 302 302 302 302 302 302 302 302 303 303 303 304 305 305 306 306 306 307 307 307 308 308 308 309 309 310 310 311 311 311 311 312 312 312 312 312 312 313 313 313 314 314 314 314 314 314 314 314 315 315 315 314 314 314 314 314 315 315 315
274 276 278 279 281 283 283 284 285 286 287 288 290 291 291 292 293 294 294 295 296 297 298 299 300 300 300 300 300 300 301 301 301 302 302 303 303 304 304 305 305 306 306 306 307 307 307 307 308 308 309 309 310 310 311 311 311 311 311 311 311 312 312 312 312 313 313 314 314 314 314 314 315 315 314 315 315 314 314 314 314 315 315 315 315
274 275 277 279 280 281 282 283 284 285 286 288 289 290 290 291 292 293 294 295 296 297 298 298 299 299 299 299 299 299 300 300 301 301 302 303 303 304 304 305 305 305 305 306 306 306 307 307 307 308 308 309 309 310 310 310 310 310 310 311 311 311 311 312 312 312 313 313 313 314 314 314 314 314 314 314 314 314 315 315 315 316 316 316 316
274 275 277 278 279 280 281 283 284 285 286 287 288 289 290 291 291 292 293 295 295 296 297 297 298 298 298 298 298 299 300 300 301 301 302 302 303 303 304 304 304 305 305 305 305 306 306 306 307 307 308 309 309 309 309 309 310 310 310 310 310 310 311 311 311 312 312 312 313 313 314 314 314 314 314 314 315 315 315 316 316 316 317 317 316
274 276 277 278 279 280 281 282 283 284 285 286 288 289 290 290 291 292 293 294 295 295 296 297 297 297 297 298 298 299 299 300 301 301 301 302 302 303 303 303 304 304 304 305 305 305 306 306 307 307 308 308 308 308 309 309 309 309 309 309 310 310 310 311 311 311 312 312 312 313 313 314 314 314 314 314 315 316 316 316 316 317 317 317 316
275 276 277 278 279 280 280 282 283 284 285 286 287 289 290 291 291 292 292 293 294 295 295 296 296 296 297 297 298 299 299 300 300 301 301 301 301 302 302 303 303 303 304 304 304 305 305 306 306 307 307 308 308 308 308 308 308 309 309 309 309 310 310 310 311 311 312 312 312 313 313 314 314 314 315 315 316 317 317 317 317 317 317 317 316
276 276 277 278 279 280 281 282 283 284 284 285 287 288 289 290 291 291 291 292 293 294 295 295 295 296 297 297 298 299 299 299 299 300 300 300 301 301 301 302 302 303 303 304 304 305 305 306 306 306 307 307 307 307 308 308 308 308 309 309 309 310 310 310 311 311 312 312 313 313 314 314 314 315 316 317 317 318 318 318 317 317 317 317 316
276 276 277 278 279 280 281 282 283 283 284 285 287 288 288 289 290 290 291 292 292 293 294 294 295 296 297 297 298 298 298 298 299 299 299 300 300 300 301 301 302 302 303 304 304 305 305 305 305 306 306 306 307 307 307 308 308 308 308 309 309 310 310 310 311 311 312 312 313 313 314 314 315 316 317 318 318 318 319 318 318 317 317 317 316
276 276 277 278 279 280 281 282 282 283 284 285 286 286 287 288 289 289 290 291 292 292 293 294 295 296 296 296 297 297 297 298 298 298 298 299 299 300 300 301 302 302 303 303 304 304 304 304 305 305 306 306 306 306 307 307 307 308 308 309 309 310 310 310 311 311 312 313 313 313 314 315 317 318 318 318 319 319 319 318 318 318 318 318 317
275 276 277 278 279 280 281 281 282 283 283 284 285 285 286 287 288 288 289 290 291 292 293 294 294 295 295 296 296 296 296 297 297 297 298 298 299 299 300 301 302 302 303 303 303 303 303 304 304 304 305 305 306 306 306 307 307 308 308 309 309 309 310 310 311 312 312 313 314 314 316 317 318 319 319 319 319 319 319 319 318 318 319 319 319
275 276 277 278 279 279 280 280 281 281 282 283 284 285 285 286 287 288 289 290 291 292 292 293 294 294 294 295 295 295 296 296 297 297 298 298 299 299 300 301 302 302 302 302 302 302 303 303 303 304 304 305 305 305 306 306 307 307 308 308 308 309 309 310 311 312 312 313 315 316 317 318 319 320 320 320 319 319 319 319 319 319 320 320 320
274 275 276 276 277 277 278 278 279 280 281 282 283 284 285 286 287 288 289 290 291 291 292 292 293 293 294 294 294 295 295 296 297 297 298 298 299 300 300 301 301 301 301 301 301 302 302 302 303 303 304 304 305 305 305 306 306 307 307 307 308 308 309 310 311 312 313 315 316 317 318 319 320 320 321 320 319 318 319 319 320 320 321 321 322
272 273 274 274 275 276 276 278 279 280 281 282 283 284 285 286 287 288 289 290 290 291 291 292 292 292 293 293 294 295 296 296 297 297 298 298 299 299 300 300 300 300 300 300 301 301 302 302 303 303 304 304 304 305 305 306 306 306 307 307 308 309 309 311 312 313 315 316 317 318 319 320 320 321 320 319 318 318 319 320 320 321 321 322 322
271 272 272 273 274 275 277 278 279 280 281 282 283 284 285 286 287 288 288 289 289 290 290 291 291 292 293 294 294 295 296 296 297 297 297 298 298 299 299 300 300 300 300 300 300 301 301 302 303 303 304 304 304 305 305 305 306 306 307 307 308 309 310 311 313 314 315 316 317 318 319 320 320 320 319 319 319 319 319 320 321 321 322 322 322
271 272 273 274 275 276 278 279 279 280 281 282 283 284 285 286 287 287 288 288 289 289 290 291 291 292 293 294 295 295 296 296 296 296 296 297 298 298 299 299 299 299 299 300 300 301 301 302 302 303 303 303 304 304 305 305 306 306 307 308 309 310 311 313 314 315 316 316 317 318 319 319 319 319 318 319 319 320 320 321 321 322 322 322 322
271 272 273 275 276 277 278 278 279 280 281 282 283 284 285 286 286 287 287 288 289 289 290 291 292 293 293 294 294 295 295 295 295 296 296 297 297 298 298 298 298 299 299 299 300 301 301 302 302 303 303 303 304 304 305 305 306 307 308 309 310 311 312 313 314 315 315 316 317 318 318 318 318 318 318 319 320 321 321 321 322 322 322 322 323
271 272 274 275 276 276 277 278 279 280 281 282 283 284 284 285 286 286 287 288 289 290 290 291 292 292 293 293 294 294 294 294 295 295 296 296 297 297 297 298 298 298 299 299 300 300 301 302 302 302 303 303 304 305 305 306 307 308 309 310 311 312 313 313 314 315 315 317 317 317 317 317 317 318 319 320 321 321 321 321 322 322 322 323 323
271 272 273 274 275 276 277 278 279 280 281 282 283 283 284 285 285 286 287 288 289 290 290 291 291 292 292 293 293 293 294 294 294 295 295 295 296 296 297 297 298 298 298 299 300 300 301 301 302 302 303 303 304 305 306 307 308 309 310 311 312 312 313 313 314 315 316 317 317 317 316 317 318 319 320 321 321 321 321 321 322 322 322 322 322
272 272 273 274 275 276 277 278 279 280 281 281 282 283 284 285 285 286 287 288 289 289 290 290 291 291 292 292 292 293 293 293 294 294 294 295 295 296 297 297 298 298 298 299 299 300 301 301 302 302 303 304 305 305 307 308 309 310 310 311 311 312 313 314 315 316 317 317 316 316 317 318 319 320 321 321 321 321 321 322 322 322 322 322 322
271 272 273 274 275 276 277 278 279 280 281 281 282 283 284 285 285 286 287 287 288 289 289 290 290 291 291 291 291 292 292 293 293 294 294 295 295 296 297 297 297 298 298 298 299 300 301 301 302 303 303 304 305 307 308 309 309 310 310 311 311 312 313 314 315 316 316 316 316 317 318 319 320 320 320 320 321 321 321 322 322 322 322 322 322
271 272 273 274 275 276 277 278 279 280 281 282 282 283 284 284 285 286 286 287 287 288 288 289 289 290 290 290 291 291 292 292 293 293 294 295 295 296 296 297 297 297 298 299 300 300 301 301 302 303 304 305 306 307 308 308 309 309 310 310 311 312 313 314 315 315 316 316 317 318 319 319 320 320 320 320 321 321 321 321 322 322 322 322 322
271 272 273 274 275 276 277 278 279 280 281 281 282 283 283 284 284 285 285 286 287 287 288 288 289 289 289 290 290 291 292 292 293 293 294 294 295 296 296 296 297 298 298 299 300 301 301 302 303 304 305 306 307 307 308 308 309 309 310 311 312 313 313 314 315 315 316 317 318 318 319 319 320 320 320 320 321 321 321 322 322 322 322 322 323
272 273 274 275 276 277 277 278 279 279 280 280 281 282 282 283 283 284 285 285 286 286 287 288 288 289 289 290 290 291 292 292 293 293 294 294 295 295 296 297 298 298 299 300 301 301 302 303 304 305 306 306 307 307 307 308 308 309 310 311 312 312 313 314 315 316 317 317 318 318 319 319 319 320 320 321 321 321 321 321 322 322 322 322 323
272 273 274 275 275 276 277 277 278 279 279 280 280 281 282 282 283 284 284 285 286 286 287 288 288 289 289 290 290 291 291 292 292 293 293 294 295 296 297 298 298 298 299 300 301 302 303 304 305 305 306 306 306 307 307 308 308 309 310 311 311 312 313 314 315 316 317 317 318 318 318 319 319 320 320 321 321 321 321 321 321 321 321 322 322
272 273 273 274 275 276 276 277 278 278 279 280 280 281 282 282 283 284 285 285 286 287 287 288 288 289 289 289 290 290 291 292 292 293 294 295 296 296 297 298 298 299 300 301 302 302 303 304 304 305 305 305 306 306 307 308 308 309 310 310 311 313 314 315 316 316 317 317 317 317 318 318 319 320 320 321 321 320 320 320 320 320 321 322 322
272 273 273 274 275 275 276 277 278 278 279 280 280 281 282 283 283 284 285 285 286 286 287 287 288 288 288 289 290 290 291 292 293 294 294 295 296 297 297 298 299 300 301 301 302 302 303 303 303 304 304 305 305 306 307 307 308 309 310 311 312 313 314 315 315 316 316 316 316 316 317 318 319 320 320 320 320 320 319 319 320 320 321 321 321
272 273 273 274 275 276 276 277 278 279 279 280 281 281 282 283 283 284 284 285 285 286 286 287 287 288 288 289 290 291 292 292 293 294 295 295 296 297 298 298 299 300 301 301 301 301 302 302 303 303 304 304 305 306 306 307 308 309 310 311 312 313 314 314 314 315 315 315 316 316 317 318 319 320 320 319 319 319 319 319 319 320 321 321 321
273 273 274 275 276 276 277 278 278 279 280 280 281 281 282 282 283 283 284 284 285 285 286 287 287 288 289 290 291 291 292 293 294 294 295 296 297 297 298 298 299 299 300 300 300 301 301 302 302 303 303 304 305 305 306 307 308 309 310 311 312 313 313 313 314 314 314 315 315 316 317 318 319 319 319 319 318 318 318 318 319 320 320 321 321
273 274 275 275 276 277 277 278 278 279 279 280 281 281 282 282 283 283 284 285 285 286 287 287 288 289 289 290 291 292 292 293 294 295 295 296 296 297 297 298 298 299 299 299 300 300 301 302 302 302 303 303 304 305 306 308 309 310 310 311 312 312 312 312 313 314 314 314 315 316 317 317 318 318 318 318 318 317 317 318 319 320 320 321 321
274 274 275 275 276 276 277 278 278 279 279 280 280 281 282 282 283 284 285 285 286 287 287 288 289 289 290 291 292 292 293 294 294 295 295 295 296 296 297 297 298 298 299 299 300 300 301 301 301 302 303 304 305 306 307 308 309 310 310 311 311 311 311 312 313 314 314 314 315 316 317 317 318 318 318 317 317 317 317 318 319 320 320 320 320
273 274 275 275 276 276 277 278 278 279 279 280 281 282 282 283 284 284 285 286 287 287 288 288 289 290 291 291 292 292 293 293 294 294 295 295 295 296 296 297 298 298 298 299 299 299 300 301 301 302 304 305 306 307 308 308 309 309 310 310 310 311 311 312 313 313 313 314 315 316 316 317 317 317 317 317 317 317 317 318 319 319 320 320 320
273 274 275 275 276 277 278 278 279 280 280 281 282 283 283 284 285 285 286 286 287 288 288 289 289 290 290 291 291 292 293 293 294 294 294 295 295 296 296 297 297 297 297 298 298 299 300 301 302 303 305 305 306 307 307 308 308 308 309 309 310 311 311 312 312 313 313 314 314 315 316 316 316 317 317 317 317 317 318 318 319 319 320 320 320
274 275 276 276 277 278 279 279 280 281 281 282 283 283 284 284 285 285 286 286 287 288 288 289 289 290 290 291 291 292 293 293 293 294 294 294 295 295 295 296 296 296 297 298 299 300 301 302 303 304 305 305 306 306 307 307 307 308 309 309 310 310 311 311 312 312 313 313 314 315 315 316 316 316 316 316 316 317 317 318 318 319 319 319 319
275 276 277 277 278 279 279 280 280 281 282 282 283 283 284 284 285 285 286 287 287 288 288 289 289 290 290 291 291 292 292 293 293 293 293 294 294 294 294 295 295 296 297 299 300 302 302 303 304 304 304 305 305 306 306 307 307 308 308 309 309 310 310 311 312 312 313 313 314 314 315 315 315 316 316 316 316 317 317 318 318 318 318 318 318
277 277 278 278 279 279 280 280 281 281 282 282 283 283 284 285 285 286 287 287 287 288 288 289 289 289 290 290 291 291 291 292 292 292 292 293 293 294 295 296 297 298 299 300 301 302 302 303 303 303 303 304 305 305 306 306 307 307 308 308 309 310 310 311 312 312 312 312 313 313 314 314 315 315 315 315 316 316 317 317 317 317 317 318 318
278 278 279 279 279 280 280 281 281 282 282 283 283 284 284 285 285 286 286 286 287 287 287 288 288 288 289 289 290 290 290 291 291 292 292 293 294 295 296 297 298 299 300 300 301 301 301 302 302 303 303 304 304 305 306 306 307 307 307 308 309 309 310 311 311 311 312 312 313 313 313 314 314 314 315 315 315 316 316 316 316 316 317 317 317
278 278 279 279 280 280 281 281 281 282 282 282 283 283 284 284 284 285 285 285 286 286 286 287 287 287 288 288 289 290 291 292 293 293 294 295 296 297 297 298 298 298 299 300 300 301 301 301 302 302 303 303 304 305 305 305 306 306 307 307 308 309 310 310 311 311 311 311 312 312 313 313 314 314 314 314 315 315 315 315 315 316 316 316 316
278 278 279 279 279 280 280 280 281 281 281 282 282 282 282 283 283 284 284 284 285 285 286 286 287 288 289 290 291 292 293 294 294 295 295 296 296 296 296 297 297 298 299 299 300 300 301 301 302 302 303 303 304 304 304 304 305 305 306 307 308 308 309 310 310 310 310 311 311 312 312 313 314 314 314 314 314 314 315 315 315 315 315 315 315
277 278 278 278 279 279 279 279 280 280 280 281 281 281 282 282 283 283 284 284 285 286 287 288 289 290 291 292 293 293 294 294 294 295 295 295 295 295 296 296 297 297 298 299 299 300 301 301 301 302 302 302 303 303 303 303 304 305 305 306 307 308 309 309 309 310 310 310 311 311 312 313 313 313 313 313 313 314 314 314 314 314 314 314 314
277 277 278 278 279 279 279 280 280 280 281 281 282 282 283 284 285 285 286 287 288 289 290 291 291 292 292 292 293 293 293 294 294 294 294 295 295 295 295 296 297 297 298 299 299 300 300 301 301 301 301 301 302 302 302 303 304 304 305 306 307 308 309 309 309 309 309 310 310 311 312 312 312 312 312 312 313 313 313 313 313 314 314 313 313
277 278 279 279 280 280 281 281 282 282 283 284 284 285 286 287 287 288 289 289 290 290 290 290 291 291 292 292 292 293 293 293 293 294 294 294 295 295 296 296 297 298 298 299 299 299 299 299 299 300 300 300 301 301 302 303 304 305 306 307 308 308 309 309 308 309 309 309 310 311 312 312 312 311 311 312 312 312 312 313 313 313 313 312 312
278 279 280 281 281 282 283 283 284 284 285 286 286 287 287 288 288 288 289 289 289 289 289 289 290 290 291 291 291 292 292 293 293 294 294 295 295 295 296 296 297 297 297 298 298 298 298 298 298 299 300 300 301 302 302 303 304 305 306 307 307 308 308 308 307 308 308 309 310 311 311 311 311 311 311 311 311 311 312 312 312 312 311 311 310
280 281 282 282 283 283 283 284 285 285 286 286 287 287 287 287 287 288 288 288 288 288 288 289 289 290 290 290 291 291 292 292 293 293 294 294 294 295 295 296 296 296 296 296 296 296 297 298 298 299 300 300 301 302 303 303 304 305 306 307 307 307 307 306 307 307 308 309 310 311 310 310 310 310 310 310 311 311 311 311 311 311 310 309 308
281 282 282 282 283 283 284 284 285 285 286 286 286 287 287 287 287 287 287 288 288 288 288 289 289 289 290 290 290 291 291 291 292 292 293 293 293 294 294 294 294 295 295 295 296 296 297 298 299 299 300 301 301 302 303 304 304 305 306 306 306 306 305 305 306 307 308 309 310 310 309 309 309 309 310 310 310 310 310 310 310 309 308 307 306
281 281 281 281 282 282 283 284 284 285 285 286 286 287 287 287 287 288 288 288 288 288 288 289 289 289 290 290 290 290 291 291 291 291 292 292 292 292 293 293 294 294 295 295 296 297 297 298 299 299 300 301 302 302 303 304 304 304 304 304 305 304 304 305 306 307 308 309 309 308 308 308 308 309 309 309 309 310 309 309 308 308 307 306 305
280 280 280 281 281 282 283 283 284 285 285 286 286 287 287 287 287 288 288 288 288 288 288 289 289 289 289 289 290 290 290 290 290 291 291 291 291 292 292 293 294 294 295 296 296 297 298 298 299 299 300 301 302 302 303 303 303 303 303 303 303 303 304 305 306 307 308 308 307 307 307 307 308 308 308 309 309 309 308 307 307 306 305 304 303
280 281 281 282 283 283 284 284 285 285 286 286 286 287 287 287 287 287 287 287 287 287 287 288 288 288 288 288 289 289 289 289 290 290 290 291 291 292 293 293 294 295 295 296 296 297 297 298 298 299 300 300 301 301 301 302 302 302 302 302 302 303 304 305 306 307 307 307 306 306 306 306 307 307 308 308 308 307 307 306 305 305 304 303 302
282 283 283 284 284 285 285 285 286 286 286 286 286 286 286 286 286 286 286 286 286 286 286 286 287 287 287 287 287 288 288 289 289 290 290 291 292 292 293 294 294 294 295 295 296 296 297 297 298 298 299 299 300 300 300 300 301 301 301 301 302 303 304 305 306 306 306 305 305 305 305 306 306 307 307 307 306 306 305 304 304 303 303 302 301
Height
10765 10764 10763 10762 10760 10759 10758 10756 10755 10753 10751 10749 10747 10744 10742 10739 10737 10734 10731 10729 10726 10723 10721 10718 10715 10711 10708 10704 10701 10697 10693 10689 10684 10680 10675 10670 10665 10659 10654 10649 10644 10639 10634 10628 10622 10617 10611 10605 10599 10592 10586 10581 10575 10568 10561 10553 10545 10538 10530 10525 10518 10509 10504 10502 10499 10504 10509 10496 10480 10474 10464 10452 10446 10436 10426 10423 10420 10413 10403 10391 10383 10377 10368 10358 10349
10757 10755 10754 10753 10752 10751 10749 10748 10746 10744 10742 10740 10738 10735 10733 10730 10727 10725 10722 10720 10717 10714 10712 10709 10706 10703 10699 10696 10692 10688 10683 10679 10674 10670 10665 10660 10654 10649 10644 10639 10634 10629 10623 10618 10611 10605 10600 10594 10587 10581 10574 10568 10562 10556 10549 10541 10532 10525 10517 10509 10503 10495 10486 10483 10481 10479 10485 10484 10471 10460 10452 10439 10429 10420 10410 10402 10398 10395 10391 10381 10372 10365 10358 10346 10334
10748 10747 10746 10745 10744 10743 10742 10740 10738 10736 10734 10731 10729 10726 10724 10721 10718 10716 10713 10711 10708 10706 10703 10700 10697 10694 10690 10686 10682 10677 10673 10669 10664 10659 10654 10649 10644 10638 10633 10628 10623 10618 10612 10606 10600 10594 10588 10582 10576 10569 10562 10555 10550 10544 10537 10530 10521 10512 10505 10496 10488 10482 10473 10465 10462 10459 10459 10462 10455 10444 10437 10429 10417 10405 10396 10388 10379 10372 10369 10364 10356 10349 10342 10332 10320
10741 10740 10739 10738 10737 10736 10734 10732 10730 10728 10725 10723 10720 10717 10715 10712 10709 10707 10705 10702 10700 10697 10694 10692 10688 10685 10681 10676 10672 10667 10663 10659 10654 10649 10644 10639 10633 10628 10622 10617 10612 10606 10600 10594 10588 10582 10575 10569 10564 10557 10551 10544 10537 10531 10524 10517 10510 10500 10492 10485 10476 10468 10460 10451 10444 10440 10436 10437 10435 10426 10417 10410 10403 10391 10379 10373 10367 10358 10351 10346 10339 10330 10324 10316 10303
10733 10732 10731 10731 10730 10728 10727 10724 10722 10719 10716 10714 10711 10709 10706 10704 10701 10699 10696 10694 10691 10688 10686 10683 10679 10675 10670 10666 10662 10657 10653 10649 10644 10639 10634 10628 10623 10617 10612 10606 10601 10595 10589 10583 10576 10570 10564 10557 10552 10545 10540 10533 10525 10519 10512 10504 10497 10489 10480 10472 10464 10456 10447 10438 10430 10424 10417 10413 10411 10408 10400 10391 10385 10376 10363 10353 10349 10344 10338 10333 10326 10315 10308 10302 10289
10726 10725 10725 10724 10722 10720 10718 10715 10713 10711 10708 10705 10703 10700 10697 10695 10692 10690 10687 10685 10682 10679 10676 10673 10669 10664 10660 10656 10652 10647 10643 10639 10634 10629 10624 10618 10612 10607 10601 10595 10589 10583 10577 10571 10565 10559 10552 10545 10540 10534 10528 10523 10515 10507 10501 10493 10484 10477 10468 10460 10453 10445 10436 10427 10418 10411 10404 10397 10390 10386 10383 10375 10367 10361 10353 10340 10331 10324 10316 10313 10311 10301 10289 10285 10277
10719 10718 10717 10716 10714 10712 10709 10707 10704 10702 10699 10696 10693 10691 10688 10685 10683 10681 10678 10676 10673 10669 10666 10662 10658 10654 10650 10646 10641 10637 10633 10628 10624 10619 10613 10608 10601 10595 10589 10583 10577 10571 10565 10560 10553 10546 10540 10533 10527 10522 10516 10510 10504 10496 10489 10482 10473 10465 10456 10449 10441 10433 10425 10416 10408 10400 10392 10384 10376 10368 10365 10359 10349 10341 10336 10326 10317 10308 10295 10287 10287 10283 10273 10266 10259
10712 10711 10709 10707 10705 10703 10700 10698 10695 10692 10690 10687 10684 10681 10678 10676 10674 10671 10669 10666 10663 10659 10656 10652 10648 10643 10639 10635 10631 10627 10623 10618 10613 10608 10602 10597 10591 10584 10578 10571 10565 10559 10553 10547 10541 10534 10528 10521 10515 10509 10504 10497 10490 10484 10477 10470 10462 10453 10444 10436 10428 10420 10413 10404 10396 10389 10380 10371 10363 10354 10348 10342 10331 10322 10316 10309 10302 10296 10285 10272 10265 10261 10255 10250 10241
10704 10703 10701 10698 10696 10694 10691 10688 10686 10683 10680 10677 10674 10671 10669 10666 10664 10662 10659 10656 10652 10649 10646 10641 10637 10633 10628 10625 10621 10617 10613 10608 10603 10598 10592 10586 10580 10573 10567 10561 10554 10548 10541 10534 10528 10522 10515 10508 10502 10496 10490 10483 10476 10469 10462 10455 10448 10440 10431 10423 10415 10407 10400 10392 10383 10375 10367 10359 10350 10340 10332 10326 10316 10303 10296 10291 10284 10277 10269 10258 10249 10244 10238 10233 10227
10695 10693 10691 10688 10686 10684 10681 10678 10676 10672 10669 10667 10664 10662 10659 10657 10654 10651 10648 10645 10642 10638 10634 10630 10626 10622 10618 10614 10611 10606 10602 10597 10592 10587 10581 10574 10568 10562 10556 10550 10544 10537 10529 10522 10514 10508 10501 10494 10488 10482 10476 10470 10463 10455 10448 10440 10432 10424 10415 10407 10400 10392 10384 10377 10369 10360 10351 10345 10336 10324 10315 10310 10303 10289 10276 10271 10265 10257 10249 10239 10231 10227 10222 10215 10211
10685 10682 10680 10678 10675 10673 10670 10667 10665 10662 10659 10656 10654 10651 10649 10646 10643 10640 10637 10634 10631 10627 10624 10620 10615 10612 10608 10604 10600 10596 10591 10586 10581 10575 10569 10563 10557 10551 10545 10539 10533 10526 10518 10511 10503 10495 10488 10481 10475 10469 10462 10456 10449 10441 10433 10425 10416 10408 10400 10391 10382 10374 10367 10360 10354 10346 10336 10329 10321 10309 10297 10291 10286 10275 10260 10251 10246 10239 10231 10222 10212 10206 10202 10194 10185
10674 10672 10670 10668 10665 10662 10659 10656 10654 10651 10648 10646 10643 10641 10638 10635 10632 10629 10626 10623 10620 10617 10613 10609 10605 10601 10598 10593 10589 10585 10580 10575 10569 10564 10558 10551 10545 10539 10533 10527 10521 10514 10506 10498 10491 10483 10476 10469 10462 10456 10450 10443 10436 10428 10420 10412 10403 10394 10386 10377 10367 10358 10350 10343 10336 10329 10321 10313 10307 10297 10284 10273 10267 10257 10243 10232 10227 10221 10215 10208 10197 10188 10183 10176 10161
10664 10662 10659 10657 10654 10651 10648 10645 10642 10640 10637 10635 10632 10630 10627 10624 10621 10618 10615 10612 10609 10606 10602 10599 10595 10590 10586 10582 10577 10573 10568 10563 10558 10552 10546 10539 10533 10527 10521 10515 10509 10501 10493 10485 10478 10471 10465 10458 10451 10444 10437 10430 10423 10416 10408 10400 10391 10382 10373 10364 10354 10345 10337 10328 10319 10311 10302 10295 10288 10281 10269 10256 10247 10239 10227 10214 10205 10200 10195 10190 10181 10172 10166 10159 10143
10654 10651 10649 10646 10643 10640 10637 10634 10631 10628 10626 10623 10621 10618 10615 10612 10609 10607 10604 10601 10598 10595 10591 10587 10583 10579 10574 10570 10565 10561 10556 10551 10546 10540 10533 10526 10520 10514 10509 10503 10496 10488 10480 10472 10465 10458 10453 10447 10440 10432 10424 10418 10411 10404 10397 10389 10381 10372 10363 10353 10344 10335 10326 10317 10308 10297 10288 10278 10268 10261 10252 10240 10230 10220 10210 10199 10188 10181 10176 10169 10161 10153 10147 10140 10126
10643 10641 10637 10634 10631 10628 10625 10622 10620 10617 10615 10612 10610 10607 10604 10601 10598 10595 10593 10590 10586 10583 10579 10575 10571 10567 10562 10557 10553 10548 10544 10539 10533 10527 10520 10513 10507 10502 10497 10491 10483 10475 10466 10459 10451 10445 10440 10434 10427 10420 10413 10405 10398 10391 10384 10378 10371 10363 10354 10344 10334 10325 10315 10306 10297 10286 10276 10265 10253 10243 10234 10224 10214 10203 10193 10183 10173 10166 10161 10154 10145 10136 10128 10122 10113
10632 10629 10625 10621 10618 10616 10613 10611 10609 10607 10604 10601 10598 10595 10592 10590 10587 10584 10581 10577 10574 10570 10567 10563 10559 10554 10549 10545 10540 10536 10531 10526 10519 10512 10506 10500 10494 10490 10485 10478 10470 10461 10452 10444 10437 10431 10426 10420 10413 10407 10399 10392 10384 10377 10370 10365 10359 10351 10344 10334 10324 10314 10304 10294 10284 10272 10261 10252 10241 10230 10220 10210 10200 10190 10178 10167 10157 10149 10146 10142 10135 10125 10115 10107 10103
10619 10615 10612 10609 10606 10605 10603 10601 10599 10596 10593 10590 10586 10583 10581 10578 10575 10571 10568 10565 10561 10557 10554 10550 10546 10541 10537 10532 10527 10522 10517 10511 10505 10498 10492 10487 10482 10477 10472 10465 10456 10447 10438 10429 10423 10416 10410 10405 10399 10392 10385 10377 10369 10362 10356 10350 10344 10337 10331 10324 10315 10305 10295 10284 10273 10260 10247 10237 10227 10217 10207 10197 10188 10179 10168 10155 10143 10134 10128 10125 10121 10115 10104 10093 10089
10605 10602 10599 10598 10596 10595 10593 10590 10587 10584 10581 10578 10574 10571 10569 10565 10562 10558 10555 10551 10548 10544 10540 10537 10532 10528 10524 10518 10513 10508 10503 10496 10490 10484 10479 10474 10469 10464 10458 10451 10442 10433 10424 10415 10408 10402 10395 10389 10384 10377 10370 10362 10355 10348 10342 10335 10328 10321 10315 10310 10303 10295 10285 10276 10266 10256 10244 10232 10220 10209 10197 10187 10178 10171 10160 10147 10134 10122 10113 10108 10104 10099 10091 10080 10072
10592 10590 10589 10587 10585 10583 10581 10577 10574 10571 10568 10565 10562 10559 10556 10552 10548 10544 10541 10538 10534 10531 10527 10523 10519 10515 10510 10505 10500 10494 10488 10481 10475 10470 10465 10461 10456 10450 10444 10438 10429 10419 10410 10402 10395 10388 10381 10375 10369 10362 10354 10347 10340 10334 10326 10319 10312 10305 10298 10293 10287 10279 10271 10263 10255 10248 10241 10231 10221 10209 10198 10186 10175 10164 10153 10141 10129 10115 10103 10096 10090 10084 10077 10068 10058
10580 10579 10578 10575 10572 10570 10568 10564 10562 10559 10556 10553 10550 10547 10543 10539 10535 10531 10528 10525 10521 10517 10514 10510 10505 10501 10496 10491 10486 10480 10473 10467 10460 10456 10451 10447 10442 10436 10430 10424 10416 10406 10397 10390 10383 10376 10368 10361 10354 10346 10338 10331 10324 10317 10310 10302 10295 10288 10281 10274 10268 10262 10256 10249 10241 10234 10228 10220 10212 10202 10193 10182 10169 10155 10142 10131 10120 10109 10097 10089 10081 10073 10066 10058 10048
10569 10567 10564 10562 10560 10557 10554 10551 10549 10546 10543 10540 10537 10534 10530 10526 10522 10519 10515 10512 10508 10504 10500 10496 10491 10487 10482 10477 10472 10465 10458 10452 10446 10442 10437 10432 10427 10422 10417 10411 10403 10393 10385 10377 10370 10363 10356 10348 10340 10331 10323 10316 10309 10302 10294 10287 10279 10272 10264 10257 10251 10245 10240 10234 10227 10220 10213 10205 10198 10189 10180 10171 10159 10146 10132 10120 10108 10098 10088 10081 10073 10064 10056 10049 10042
10555 10553 10551 10549 10547 10544 10541 10538 10536 10533 10530 10527 10524 10520 10517 10513 10510 10506 10502 10499 10495 10490 10486 10482 10477 10472 10468 10462 10457 10450 10444 10438 10433 10428 10423 10417 10412 10407 10403 10397 10389 10380 10371 10364 10358 10351 10344 10336 10327 10318 10310 10303 10295 10287 10280 10272 10264 10256 10249 10242 10236 10230 10225 10218 10211 10205 10197 10190 10182 10173 10164 10156 10147 10135 10124 10111 10098 10086 10077 10070 10063 10056 10047 10040 10033
10541 10540 10538 10536 10533 10531 10528 10525 10523 10520 10517 10514 10510 10507 10504 10500 10497 10493 10489 10485 10481 10477 10472 10467 10463 10458 10454 10448 10442 10436 10429 10424 10419 10414 10408 10402 10396 10392 10388 10382 10374 10365 10357 10351 10345 10338 10331 10322 10314 10306 10298 10290 10282 10273 10265 10257 10250 10242 10235 10229 10222 10216 10209 10203 10196 10189 10182 10175 10166 10156 10147 10139 10131 10122 10113 10103 10090 10077 10066 10058 10052 10045 10038 10030 10022
10528 10526 10525 10522 10520 10517 10515 10512 10510 10507 10503 10500 10497 10494 10490 10486 10483 10479 10475 10472 10467 10463 10458 10453 10449 10444 10439 10433 10427 10421 10416 10411 10405 10399 10393 10387 10382 10377 10373 10367 10360 10350 10342 10337 10332 10325 10317 10309 10301 10294 10286 10277 10268 10260 10251 10244 10236 10229 10221 10215 10208 10202 10195 10188 10182 10175 10168 10159 10150 10140 10131 10124 10116 10108 10100 10091 10080 10068 10056 10046 10039 10032 10025 10019 10012
10515 10513 10511 10509 10507 10504 10502 10499 10496 10493 10489 10486 10483 10480 10476 10473 10469 10465 10461 10457 10453 10448 10444 10440 10435 10430 10424 10419 10413 10407 10402 10397 10391 10384 10378 10372 10367 10363 10358 10352 10345 10336 10328 10323 10318 10310 10302 10294 10287 10280 10272 10264 10255 10246 10238 10230 10222 10215 10208 10201 10195 10188 10182 10176 10169 10162 10154 10145 10136 10127 10119 10111 10103 10095 10087 10079 10068 10058 10047 10036 10026 10019 10012 10006 10000
10501 10500 10498 10496 10493 10491 10488 10485 10482 10479 10476 10472 10469 10466 10462 10459 10455 10451 10447 10443 10439 10434 10430 10425 10420 10415 10410 10404 10398 10393 10388 10382 10376 10370 10364 10358 10353 10348 10343 10337 10330 10321 10315 10310 10303 10295 10287 10280 10273 10265 10258 10250 10242 10233 10225 10217 10209 10201 10194 10188 10182 10175 10169 10163 10156 10148 10141 10132 10123 10114 10107 10100 10092 10082 10074 10065 10056 10046 10037 10028 10019 10011 10003 9996 9989
10488 10486 10484 10482 10480 10477 10474 10471 10468 10465 10462 10458 10455 10451 10448 10444 10441 10437 10433 10429 10424 10420 10416 10411 10406 10400 10394 10389 10384 10379 10374 10368 10362 10356 10350 10344 10339 10333 10328 10322 10315 10307 10302 10297 10289 10280 10272 10265 10258 10251 10244 10236 10228 10220 10212 10204 10196 10188 10181 10175 10168 10162 10155 10149 10141 10134 10127 10119 10111 10103 10095 10087 10080 10071 10061 10053 10044 10035 10027 10019 10012 10005 9997 9989 9982
10475 10473 10471 10469 10466 10463 10460 10458 10454 10451 10447 10444 10440 10437 10433 10430 10426 10423 10418 10414 10410 10406 10401 10396 10391 10385 10379 10374 10369 10365 10360 10354 10348 10342 10336 10330 10325 10320 10315 10308 10300 10294 10289 10283 10274 10266 10259 10252 10245 10238 10230 10222 10215 10207 10199 10191 10182 10175 10168 10162 10155 10148 10141 10134 10126 10119 10112 10106 10098 10091 10084 10076 10069 10060 10050 10041 10033 10026 10017 10010 10003 9997 9990 9982 9975
10462 10460 10458 10455 10452 10450 10447 10443 10440 10436 10433 10429 10426 10422 10419 10415 10412 10408 10403 10399 10395 10391 10387 10382 10376 10370 10364 10359 10355 10350 10346 10340 10334 10328 10322 10317 10312 10306 10300 10293 10286 10280 10275 10269 10261 10253 10246 10239 10232 10225 10218 10211 10203 10195 10188 10180 10171 10163 10156 10149 10143 10136 10129 10122 10114 10107 10100 10094 10086 10080 10073 10066 10058 10049 10039 10030 10022 10014 10008 10001 9994 9987 9981 9975 9968
10448 10445 10443 10441 10438 10435 10432 10429 10425 10421 10418 10415 10411 10408 10404 10401 10397 10393 10388 10384 10380 10377 10372 10367 10361 10354 10349 10345 10340 10336 10331 10326 10320 10314 10308 10302 10297 10292 10285 10278 10272 10267 10261 10255 10248 10240 10233 10227 10220 10213 10206 10199 10192 10185 10178 10170 10163 10155 10146 10138 10131 10124 10117 10110 10103 10096 10088 10081 10074 10067 10061 10054 10048 10040 10031 10020 10011 10003 9996 9990 9984 9978 9972 9966 9959
10433 10430 10428 10425 10423 10420 10417 10413 10410 10406 10403 10400 10397 10393 10390 10385 10381 10377 10373 10369 10365 10362 10357 10351 10344 10339 10334 10330 10325 10321 10316 10311 10306 10300 10293 10287 10282 10277 10270 10264 10259 10254 10248 10242 10235 10228 10222 10215 10208 10201 10194 10187 10181 10174 10167 10160 10153 10145 10137 10128 10120 10113 10106 10099 10091 10084 10076 10068 10061 10055 10049 10043 10037 10031 10022 10013 10003 9993 9986 9980 9974 9969 9963 9956 9950
10417 10415 10412 10410 10407 10404 10401 10398 10395 10391 10388 10385 10381 10378 10374 10369 10365 10360 10356 10353 10350 10345 10340 10334 10328 10323 10319 10315 10310 10305 10301 10296 10291 10284 10278 10272 10267 10262 10256 10250 10245 10240 10235 10228 10222 10215 10209 10203 10195 10188 10181 10175 10169 10162 10155 10148 10140 10133 10125 10117 10109 10101 10094 10087 10080 10072 10064 10056 10049 10043 10037 10031 10024 10019 10012 10004 9995 9986 9977 9970 9964 9959 9953 9947 9941
10402 10399 10396 10394 10391 10388 10385 10382 10379 10376 10372 10369 10365 10362 10357 10353 10349 10344 10340 10337 10334 10329 10323 10317 10312 10308 10304 10300 10294 10290 10285 10281 10275 10270 10264 10258 10252 10247 10242 10236 10231 10226 10220 10214 10208 10202 10196 10190 10182 10175 10169 10162 10156 10149 10141 10134 10127 10120 10113 10106 10098 10090 10082 10075 10068 10060 10052 10043 10036 10030 10024 10018 10011 10005 9999 9992 9984 9976 9968 9961 9955 9949 9944 9938 9932
10386 10384 10380 10377 10375 10372 10369 10366 10363 10359 10356 10352 10349 10345 10340 10336 10333 10328 10324 10321 10317 10312 10307 10301 10296 10293 10289 10284 10278 10274 10271 10266 10261 10256 10249 10243 10237 10232 10228 10223 10217 10211 10206 10200 10194 10189 10183 10176 10169 10162 10155 10148 10141 10134 10127 10120 10113 10107 10100 10093 10085 10077 10070 10063 10056 10048 10039 10031 10024 10017 10011 10005 9998 9992 9985 9978 9970 9964 9957 9950 9944 9938 9933 9928 9922
10371 10368 10365 10362 10359 10356 10353 10350 10346 10342 10339 10335 10332 10328 10324 10320 10316 10312 10308 10305 10301 10297 10291 10286 10281 10278 10274 10269 10264 10260 10257 10252 10247 10242 10235 10228 10223 10218 10214 10209 10204 10198 10192 10186 10180 10175 10170 10162 10154 10147 10140 10133 10127 10120 10114 10107 10100 10094 10088 10080 10073 10065 10058 10051 10044 10036 10027 10019 10011 10005 9998 9992 9986 9979 9973 9966 9959 9952 9946 9939 9932 9926 9921 9917 9912
10355 10352 10349 10346 10343 10340 10337 10334 10330 10326 10323 10319 10316 10312 10308 10304 10300 10296 10292 10289 10286 10282 10277 10272 10267 10263 10260 10254 10249 10246 10243 10238 10233 10228 10221 10214 10209 10204 10199 10195 10189 10184 10178 10173 10167 10162 10155 10147 10140 10132 10125 10119 10113 10107 10100 10094 10087 10081 10074 10068 10061 10054 10047 10040 10033 10024 10014 10006 9999 9993 9987 9980 9974 9967 9961 9955 9949 9942 9935 9929 9923 9916 9911 9906 9902
10339 10336 10334 10331 10328 10325 10322 10318 10315 10311 10308 10304 10301 10297 10293 10289 10286 10282 10278 10274 10271 10267 10263 10258 10253 10249 10245 10240 10235 10232 10229 10224 10219 10214 10207 10201 10195 10189 10184 10179 10174 10169 10163 10158 10152 10147 10140 10132 10125 10118 10110 10104 10098 10092 10086 10079 10073 10067 10060 10054 10048 10042 10034 10028 10021 10013 10003 9995 9988 9981 9975 9969 9964 9957 9950 9944 9938 9932 9925 9920 9913 9908 9902 9897 9892
10323 10321 10319 10316 10313 10310 10307 10304 10300 10296 10293 10289 10285 10282 10279 10276 10272 10267 10263 10259 10256 10253 10249 10244 10239 10235 10230 10225 10221 10219 10215 10209 10205 10200 10193 10187 10180 10174 10168 10163 10158 10153 10146 10141 10136 10131 10124 10118 10111 10104 10096 10090 10084 10078 10071 10065 10059 10053 10046 10040 10034 10028 10021 10014 10007 10000 9991 9983 9976 9970 9964 9959 9953 9947 9940 9933 9927 9921 9915 9910 9904 9899 9894 9888 9883
10307 10306 10303 10301 10298 10295 10292 10289 10286 10282 10278 10274 10271 10268 10265 10262 10258 10253 10249 10246 10242 10239 10234 10229 10225 10220 10215 10211 10208 10205 10200 10195 10190 10184 10178 10171 10165 10158 10152 10146 10141 10136 10131 10126 10121 10116 10110 10104 10097 10090 10083 10076 10070 10064 10058 10051 10044 10038 10032 10026 10019 10013 10007 10001 9994 9986 9979 9971 9964 9958 9952 9947 9942 9936 9929 9923 9917 9912 9906 9900 9895 9890 9885 9880 9875
10293 10290 10288 10286 10284 10281 10278 10275 10272 10268 10264 10261 10257 10255 10251 10247 10244 10240 10236 10232 10228 10224 10220 10215 10211 10205 10201 10197 10194 10190 10184 10179 10174 10167 10161 10155 10149 10143 10137 10131 10125 10120 10116 10111 10106 10100 10095 10089 10082 10075 10069 10063 10056 10050 10044 10037 10030 10024 10018 10012 10007 10001 9994 9988 9981 9974 9967 9960 9953 9947 9941 9935 9930 9925 9918 9912 9907 9902 9896 9891 9885 9880 9876 9872 9867
10278 10276 10274 10272 10269 10267 10265 10261 10258 10254 10251 10248 10244 10241 10237 10233 10230 10226 10222 10218 10214 10209 10205 10201 10195 10190 10186 10182 10178 10173 10168 10162 10156 10150 10144 10139 10134 10128 10122 10116 10110 10105 10100 10095 10091 10086 10080 10074 10067 10061 10055 10049 10043 10036 10030 10023 10017 10011 10005 10000 9995 9989 9982 9976 9968 9961 9955 9949 9943 9937 9930 9924 9918 9912 9906 9901 9896 9891 9886 9881 9876 9871 9866 9862 9858
10264 10262 10260 10257 10255 10253 10250 10247 10243 10240 10237 10234 10230 10226 10223 10219 10216 10212 10208 10203 10198 10194 10189 10184 10178 10173 10168 10164 10160 10155 10150 10145 10139 10134 10129 10123 10118 10112 10106 10101 10095 10090 10085 10079 10074 10070 10065 10059 10052 10046 10040 10034 10029 10023 10016 10010 10004 9998 9992 9987 9982 9976 9969 9962 9955 9948 9942 9937 9932 9926 9920 9914 9907 9901 9895 9890 9885 9880 9876 9871 9866 9861 9856 9853 9849
10250 10248 10245 10242 10240 10237 10234 10231 10228 10225 10221 10218 10214 10211 10207 10203 10199 10195 10191 10186 10181 10177 10172 10166 10161 10156 10152 10148 10143 10139 10134 10128 10123 10118 10113 10107 10101 10096 10090 10086 10081 10075 10070 10064 10058 10053 10049 10043 10037 10031 10025 10019 10014 10008 10002 9995 9989 9983 9978 9973 9968 9962 9955 9948 9941 9934 9929 9924 9920 9915 9910 9904 9898 9891 9885 9879 9875 9870 9866 9861 9856 9851 9846 9842 9839
10235 10232 10230 10227 10224 10221 10218 10215 10211 10208 10205 10201 10197 10194 10190 10186 10182 10178 10174 10169 10165 10161 10156 10151 10145 10141 10136 10132 10127 10123 10117 10111 10106 10102 10097 10091 10085 10079 10074 10070 10065 10060 10054 10048 10042 10037 10032 10027 10021 10016 10010 10005 9999 9993 9987 9980 9974 9968 9963 9958 9952 9946 9941 9934 9927 9922 9916 9911 9907 9902 9897 9892 9886 9881 9875 9869 9864 9860 9856 9851 9846 9841 9836 9832 9829
10219 10216 10214 10211 10208 10205 10201 10198 10194 10191 10188 10184 10181 10177 10173 10170 10166 10162 10158 10154 10150 10145 10140 10136 10131 10126 10122 10117 10112 10107 10101 10095 10090 10086 10080 10074 10068 10063 10058 10054 10049 10044 10039 10033 10027 10021 10015 10010 10005 10000 9995 9989 9984 9978 9972 9966 9959 9953 9948 9943 9937 9932 9926 9920 9914 9909 9904 9900 9895 9890 9884 9879 9874 9869 9864 9859 9854 9849 9845 9841 9837 9832 9827 9823 9819
10202 10199 10197 10194 10191 10188 10184 10181 10178 10175 10171 10168 10165 10161 10157 10154 10150 10147 10143 10138 10134 10129 10124 10120 10115 10110 10106 10101 10096 10091 10085 10080 10075 10070 10064 10058 10052 10047 10042 10038 10033 10028 10023 10017 10011 10005 9999 9994 9988 9983 9978 9973 9968 9962 9957 9951 9945 9939 9935 9930 9924 9918 9913 9907 9902 9897 9893 9888 9883 9878 9872 9867 9862 9858 9853 9848 9843 9838 9834 9830 9827 9823 9818 9814 9810
10185 10182 10179 10177 10174 10171 10168 10164 10161 10158 10155 10152 10148 10144 10141 10137 10134 10130 10126 10121 10116 10112 10108 10103 10098 10093 10089 10085 10080 10074 10069 10065 10060 10055 10049 10043 10037 10031 10026 10022 10016 10011 10006 10001 9994 9988 9983 9978 9972 9967 9961 9956 9951 9946 9941 9935 9930 9925 9921 9916 9911 9906 9900 9895 9890 9886 9881 9876 9871 9866 9861 9856 9851 9847 9842 9838 9833 9828 9823 9819 9816 9813 9809 9805 9801
10168 10165 10162 10160 10157 10154 10151 10148 10145 10142 10139 10135 10131 10128 10124 10120 10116 10112 10108 10103 10098 10094 10090 10085 10080 10076 10072 10067 10062 10057 10053 10048 10044 10038 10032 10026 10021 10015 10010 10005 10000 9994 9989 9983 9977 9972 9967 9961 9956 9951 9945 9940 9935 9930 9925 9920 9915 9911 9906 9902 9897 9892 9887 9882 9878 9874 9869 9864 9859 9854 9849 9845 9840 9836 9831 9826 9822 9817 9813 9808 9805 9802 9799 9796 9792
10149 10147 10145 10142 10139 10137 10133 10130 10128 10125 10121 10118 10114 10111 10107 10103 10099 10095 10090 10085 10081 10077 10072 10068 10063 10059 10054 10050 10045 10040 10035 10031 10026 10020 10014 10009 10004 9999 9993 9988 9983 9978 9972 9966 9961 9956 9950 9945 9940 9935 9930 9925 9920 9915 9910 9906 9901 9897 9892 9888 9883 9879 9874 9870 9866 9861 9857 9852 9847 9842 9838 9834 9830 9826 9821 9816 9811 9807 9802 9798 9794 9791 9789 9786 9783
10130 10128 10125 10122 10120 10117 10114 10112 10109 10106 10103 10100 10097 10093 10089 10086 10082 10078 10073 10068 10064 10060 10055 10051 10047 10042 10038 10033 10028 10023 10019 10014 10008 10002 9996 9991 9986 9981 9976 9971 9966 9961 9955 9950 9945 9940 9935 9930 9925 9921 9916 9912 9907 9902 9897 9893 9888 9883 9878 9874 9869 9864 9860 9857 9853 9848 9844 9839 9835 9830 9826 9823 9819 9815 9811 9806 9801 9796 9791 9787 9784 9781 9778 9776 9773
10110 10108 10105 10102 10100 10097 10094 10092 10090 10086 10083 10080 10077 10074 10071 10068 10064 10059 10055 10051 10047 10042 10038 10034 10030 10026 10021 10016 10012 10007 10003 9997 9991 9985 9980 9974 9969 9964 9959 9954 9949 9944 9938 9933 9929 9924 9920 9915 9911 9907 9903 9898 9893 9889 9884 9880 9875 9870 9865 9860 9855 9851 9847 9843 9839 9835 9830 9826 9821 9818 9814 9811 9808 9804 9801 9796 9791 9786 9781 9777 9774 9771 9768 9766 9763